Terug naar catalogus

SL-14 DEB

LostPO
NORAD 39978·DEBRIS·🇷🇺 Russia

Gelanceerd Aug 18, 1987 vanaf Plesetsk Cosmodrome

Loading…

Volgende Passages (komende 24 uur)

TLE

VerouderdSource: Space-Track

Epoch: Jul 31, 2024, 12:32 UTC

1 39978U 87068DE  24213.52246791  .00002083  00000-0  15291-2 0  9996
2 39978  82.4122 292.8503 0047883 178.3107 181.8230 13.94786429 45468

Volg SL-14 DEB in realtime met AllMySat

Download on the App Store